Location: Hastringsfeld
(50.9620°N, 10.4787°E)
Time: 04:54:15
(UTC+00:00)

Daily predictions for brighter satellites

Satellite Brightness Start Highest point End
(mag) Time Altitude Azimuth Time Altitude Azimuth Time Altitude Azimuth
Resurs 1-4 Rocket 4.5 00:00:16 10° NE 00:02:04 17° ENE 00:02:04 17° ENE
CZ-2D R/B 4.4 00:00:54 10° NE 00:03:03 18° ENE 00:03:03 18° ENE
ATLAS 3B R/B 4.4 00:05:37 10° NW 00:12:14 32° N 00:19:04 10° ENE
ADEOS II 3.9 00:41:10 10° NE 00:44:21 25° ENE 00:44:21 25° ENE
ATLAS 5 CENTAUR R/B 4.4 00:55:34 12° NE 00:55:34 12° NE 00:55:57 10° NE
Cosmos 2082 Rocket 3.5 01:02:42 35° ENE 01:02:42 35° ENE 01:06:40 10° NE
IDEFIX/ARIANE 42P 3.7 01:08:26 10° NNE 01:12:00 42° NE 01:12:00 42° NE
Cosmos 1833 Rocket 3.6 01:18:16 44° N 01:18:16 44° N 01:22:11 10° NNE
Cosmos 1092 Rocket 4.4 01:19:35 57° E 01:19:35 57° E 01:25:46 10° NNE
Aureole 1 Rocket 4.4 01:21:16 60° E 01:21:16 60° E 01:26:54 10° NNE
CZ-2C R/B 3.4 01:27:27 48° ENE 01:27:27 48° ENE 01:32:15 10° N
SL-16 R/B 2.7 01:28:59 64° NNW 01:28:59 64° NNW 01:34:09 10° NNW
ALOS 4.1 01:24:07 10° NE 01:27:51 24° E 01:27:51 24° E
ATLAS CENTAUR R/B 4.2 01:31:06 12° N 01:31:06 12° N 01:31:42 10° NNE
BREEZE-M DEB (TANK) 4.3 01:33:25 66° SSW 01:34:23 71° SSE 01:58:33 10° ENE
Cosmos 1980 Rocket 4.4 01:30:02 10° NW 01:30:49 14° NW 01:30:49 14° NW
SJ 16-02 4.0 01:38:10 13° NNW 01:38:10 13° NNW 01:38:59 10° N
SL-16 R/B 2.8 01:35:52 10° NNW 01:41:28 54° NE 01:47:01 10° SE
RESURS DK-1 4.2 01:46:11 29° NE 01:46:11 29° NE 01:48:22 10° NE
Resurs 1-4 Rocket 2.8 01:39:17 10° N 01:43:07 48° N 01:43:07 48° N
BlueWalker 3 4.3 01:47:20 21° ENE 01:47:20 21° ENE 01:48:45 10° ENE
CZ-2D R/B 2.7 01:40:05 10° NNE 01:44:21 53° N 01:44:21 53° N
USA 281 3.1 01:39:03 10° NNE 01:45:40 79° ESE 01:46:05 76° SSE
ATLAS 2AS CENTAUR R/B 4.0 01:45:49 28° SSE 01:48:15 34° ESE 01:54:40 10° NE
USA 215 3.3 01:43:00 10° SE 01:48:20 59° SSE 01:48:20 59° SSE
FENGYUN 3A 4.1 01:44:27 10° NNE 01:49:44 54° E 01:49:58 54° ESE
Cosmos 2278 4.4 01:44:03 10° NNW 01:47:56 45° NNW 01:47:56 45° NNW
Cosmos 371 Rocket 3.9 01:54:59 56° NE 01:54:59 56° NE 01:58:54 10° NNE
Cosmos 1461 4.1 01:55:35 45° ENE 01:55:35 45° ENE 01:58:49 10° NE
MSX 3.9 01:51:37 10° NNE 01:56:52 69° NNW 01:56:52 69° NNW
Cosmos 2237 4.4 01:55:26 10° NNW 02:01:12 71° ENE 02:06:55 10° SE
Cosmos 1812 4.4 02:04:52 30° NE 02:04:52 30° NE 02:07:03 10° NNE
Iridium 4 Rocket 3.6 01:59:04 10° N 02:04:32 70° E 02:04:49 69° ESE
ATLAS 3B R/B 3.6 01:57:06 10° NW 02:04:37 56° NE 02:12:16 10° ESE
Cosmos 2322 Rocket 2.8 02:00:05 10° NNW 02:05:39 55° NE 02:11:13 10° SE
AQUA 4.4 02:04:21 10° N 02:07:59 50° NNW 02:07:59 50° NNW
Cosmos 2112 Rocket 4.3 02:03:56 10° NNW 02:09:18 66° ENE 02:14:37 10° SE
SL-4 R/B 4.2 02:16:50 15° ESE 02:16:50 15° ESE 02:17:27 10° ESE
NOSS 3-4 (A) 3.9 02:13:22 42° NW 02:14:09 44° NNW 02:20:15 10° NE
NOSS 3-4 (C) 3.9 02:13:29 43° NW 02:14:15 45° NNW 02:20:22 10° NE
COSMOS 2406 3.2 02:14:46 68° WNW 02:14:53 68° WNW 02:20:41 10° NNE
ASTEX 1 3.7 02:12:04 10° N 02:16:10 56° NNW 02:16:10 56° NNW
NOSS 2-3 (C) 4.4 02:17:54 32° NW 02:20:56 76° SW 02:28:42 10° SE
Lacrosse 4 Rocket 1.8 02:23:45 59° NNE 02:23:45 59° NNE 02:27:19 10° NNE
ADEOS II 2.4 02:20:29 10° N 02:25:14 50° NW 02:25:14 50° NW
Cosmos 1680 Rocket 3.4 02:20:33 10° NNW 02:25:54 84° WSW 02:27:56 39° SSE
NOSS 2-3 (D) 4.4 02:22:40 28° NW 02:26:02 74° SW 02:33:46 10° SSE
Cosmos 405 Rocket 3.9 02:28:06 34° N 02:28:06 34° N 02:30:21 10° N
Cosmos 1782 3.4 02:28:45 53° E 02:28:45 53° E 02:32:31 10° NNE
Cosmos 2360 Rocket 2.5 02:29:17 10° NNW 02:34:57 66° ENE 02:40:35 10° SE
Cosmos 1553 Rocket 3.9 02:29:17 10° NNW 02:35:21 65° W 02:37:03 46° SSW
ATLAS 5 CENTAUR R/B 2.5 02:36:43 33° NNW 02:36:43 33° NNW 02:40:20 10° NE
Cosmos-2242 3.7 02:37:56 41° NNW 02:37:56 41° NNW 02:41:01 10° N
Meteor 2-2 Rocket 4.2 02:35:17 43° S 02:37:23 89° ESE 02:43:15 10° NNE
Thor Agena Rocket 3.5 02:32:16 10° NNE 02:37:32 81° WNW 02:38:37 58° SSW
Cosmos 2333 Rocket 2.8 02:32:35 10° NNW 02:38:14 57° NE 02:43:53 10° SE
Cosmos 2221 3.4 02:36:31 28° SSE 02:38:21 46° E 02:42:31 10° NNE
Cosmos 2026 Rocket 4.3 02:42:02 43° W 02:42:35 44° WNW 02:48:26 10° N
Cosmos 304 Rocket 3.9 02:43:48 56° WNW 02:43:56 56° WNW 02:48:42 10° NNE
Cosmos 2082 Rocket 2.7 02:44:33 41° WNW 02:45:26 44° NW 02:50:56 10° NNE
Cosmos 2285 Rocket 4.4 02:40:14 10° NNW 02:46:30 63° ENE 02:52:46 10° SE
Cosmos 1812 Rocket 3.9 02:48:13 48° NW 02:48:13 48° NW 02:52:10 10° N
Cosmos 332 Rocket 3.6 02:48:17 59° SW 02:49:12 84° WNW 02:54:01 10° NNE
CZ-4 R/B 3.9 02:45:10 10° N 02:49:41 52° WNW 02:49:51 51° WNW
ATLAS CENTAUR R/B 3.7 02:48:30 37° SW 02:51:32 75° SE 03:03:57 10° ENE
Cosmos 1898 Rocket 3.5 02:51:03 50° SW 02:52:21 71° WNW 02:57:43 10° NNE
Cosmos 1655 Rocket 4.5 02:46:06 10° S 02:52:23 63° E 02:58:43 10° NNE
CZ-2C R/B 2.6 02:47:42 10° NNE 02:52:35 65° ESE 02:55:28 23° S
IDEFIX/ARIANE 42P 3.9 02:48:40 10° N 02:52:46 24° WNW 02:52:46 24° WNW
PAYLOAD A 4.2 02:51:28 10° NNE 02:56:13 63° ESE 02:59:52 18° S
NOSS 2-2 (E) 4.1 02:55:40 42° W 02:57:00 55° SW 03:03:16 10° SSE
Meteor 1-5 Rocket 4.2 02:52:24 10° NNW 02:58:11 88° ENE 03:03:42 10° SSE
Cosmos 44 3.4 02:58:37 46° SW 03:00:09 80° NW 03:05:32 10° NE
YAOGAN 11 4.1 02:56:59 10° SSE 03:01:31 87° WSW 03:06:02 10° NNW
Cosmos 1833 Rocket 4.4 02:59:58 17° NW 03:01:38 19° NNW 03:05:33 10° N
Cosmos 1937 Rocket 3.4 03:02:00 40° SW 03:03:51 75° WNW 03:09:05 10° NNE
ALOS 2.5 03:00:58 10° N 03:05:27 48° WNW 03:06:14 43° W
NOSS 3-1 (C) 4.0 02:58:48 10° NW 03:05:59 84° SW 03:14:43 10° SE
CZ-2C R/B 3.6 03:08:57 26° WNW 03:08:57 26° WNW 03:12:15 10° NNW
SL-16 R/B 4.0 03:14:05 17° WNW 03:14:05 17° WNW 03:16:39 10° NW
USA-17 4.1 03:12:32 69° WSW 03:12:41 70° SW 03:16:21 10° SE
NOSS 2-2 (D) 4.1 03:13:18 24° WNW 03:15:57 51° SW 03:22:06 10° SSE
Cosmos 1408 Rocket 4.0 03:13:59 10° N 03:18:20 63° ENE 03:22:43 10° SSE
NOSS 2-2 (C) 4.2 03:15:56 23° WNW 03:18:41 50° SW 03:24:48 10° SSE
CZ-2C R/B 3.5 03:14:32 10° N 03:20:12 54° WNW 03:23:22 25° SW
IRS-1D 3.6 03:15:20 10° N 03:20:39 64° WNW 03:24:00 22° SW
Cosmos 858 Rocket 4.5 03:18:32 29° SW 03:21:09 66° WNW 03:26:24 10° NNE
RESURS DK-1 3.7 03:21:54 23° WNW 03:22:29 24° NW 03:25:51 10° NNE
Resurs 1-4 Rocket 3.9 03:20:41 10° NNW 03:23:25 14° NW 03:24:10 14° WNW
BlueWalker 3 2.2 03:21:58 32° WNW 03:23:33 61° N 03:27:23 10° E
BREEZE-M DEB 2.4 03:24:31 42° S 03:24:36 42° SSE 03:26:55 10° E
CZ-2D R/B 3.9 03:21:34 10° NNW 03:24:39 15° NW 03:25:38 15° WNW
Cosmos 2219 Rocket 2.4 03:19:26 10° NNW 03:25:07 77° ENE 03:30:47 10° SE
SL-16 R/B 2.8 03:20:22 10° NW 03:25:19 31° WSW 03:30:14 10° SSW
Cosmos 1933 3.7 03:25:46 36° WSW 03:26:28 40° WNW 03:30:14 10° N
SL-27 R/B 4.4 03:27:00 10° SSE 03:29:37 25° ESE 03:32:15 10° NE
USA 281 4.2 03:24:03 10° NNE 03:29:39 31° NW 03:32:57 20° W
SL-08 ROCKET BODY 4.4 03:23:32 10° S 03:29:44 83° W 03:35:55 10° N
Cosmos 372 Rocket 4.3 03:29:24 27° WSW 03:31:47 48° WNW 03:36:44 10° NNE
USA 215 4.1 03:27:59 10° S 03:33:18 26° SW 03:35:44 21° W
Cosmos 1461 4.4 03:31:30 21° WNW 03:33:19 28° NNW 03:37:14 10° NNE
Sich 1 4.0 03:33:26 10° N 03:37:37 49° ENE 03:41:48 10° SSE
Cosmos 1536 4.3 03:33:58 10° N 03:37:39 39° ENE 03:41:18 10° SE
S3M 4.4 03:32:17 10° NNW 03:38:12 41° W 03:44:03 10° SSW
DMSP B5D2-2 4.0 03:33:06 10° SSE 03:38:22 83° WSW 03:43:40 10° NNW
ATLAS 2AS CENTAUR R/B 2.9 03:33:16 20° SW 03:38:47 76° NW 03:46:01 10° NE
Cosmos 1812 4.4 03:39:25 17° WNW 03:39:25 17° WNW 03:41:29 10° NNW
YAOGAN 6 2.6 03:38:06 10° N 03:41:22 49° WNW 03:43:05 24° SW
METEOR-M 4.4 03:38:59 10° N 03:44:08 49° WNW 03:48:31 14° SW
Cosmos 2315 Rocket 4.1 03:39:22 10° NNW 03:45:32 54° W 03:51:42 10° SSW
Cosmos 494 Rocket 3.9 03:40:27 10° NNW 03:45:33 60° WSW 03:50:34 10° S
Cosmos 1766 Rocket 4.4 03:42:18 10° NNW 03:46:01 28° W 03:48:24 17° SW
Cosmos 1500 Rocket 3.6 03:42:03 10° N 03:46:29 84° ENE 03:50:51 10° S
H-2A R/B 3.4 03:45:43 10° NNE 03:49:11 51° E 03:52:35 10° S
Cosmos 2322 Rocket 2.9 03:44:33 10° NW 03:49:26 30° WSW 03:54:18 10° SSW
Okean 3 Rocket 4.1 03:47:03 10° NNW 03:51:12 37° W 03:55:18 10° SSW
SL-4 R/B 2.8 03:51:57 22° SW 03:52:40 24° SW 03:55:27 10° SSE
Cosmos 1743 2.5 03:49:06 10° NNW 03:52:53 81° W 03:56:37 10° S
Envisat 3.2 03:49:15 10° N 03:54:09 50° WNW 03:59:01 10° SW
ATLAS 3B R/B 3.1 03:48:04 10° NW 03:55:33 56° WSW 04:03:05 10° SSE
NOAA 11 4.2 03:52:17 10° N 03:57:45 65° WNW 04:03:10 10° SSW
Cosmos 1048 Rocket 4.0 03:52:37 10° NNW 03:57:50 57° WSW 04:02:56 10° S
USA 229 DEB 4.3 03:51:04 10° NW 03:58:19 71° NE 04:06:14 10° SE
USA 229 4.3 03:51:10 10° NW 03:58:25 70° NE 04:06:18 10° SE
COSMO-SKYMED 1 3.5 03:56:20 10° SSE 04:00:34 54° ENE 04:04:50 10° N
Cosmos 1125 Rocket 4.2 03:55:49 10° S 04:00:55 58° ESE 04:06:02 10° NNE
Cosmos 1378 3.0 03:57:36 10° S 04:01:07 84° E 04:04:40 10° NNE
Lacrosse 4 Rocket 3.3 03:59:50 13° WNW 04:02:09 18° NNW 04:05:13 10° NNE
Meteor 1-14 Rocket 4.5 03:58:15 10° NNW 04:04:04 54° W 04:09:52 10° S
ADEOS II 4.1 04:02:38 10° NNW 04:04:04 11° NW 04:05:31 10° WNW
Cosmos 1782 4.4 04:04:01 15° W 04:05:01 17° WNW 04:07:34 10° NNW
IRS-1C 4.3 04:01:24 10° NNE 04:06:46 79° ESE 04:12:06 10° SSW
Timation 1 Rocket 4.3 04:01:34 10° SSW 04:07:33 84° WNW 04:13:34 10° NNE
Cosmos 292 Rocket 3.9 04:02:58 10° SW 04:07:43 58° WNW 04:12:28 10° NNE
Cosmos 1484 Rocket 2.7 04:04:10 10° N 04:07:45 57° WNW 04:11:18 10° SSW
Cosmos 1842 Rocket 4.0 04:05:24 10° SW 04:09:39 42° WNW 04:13:56 10° N
Meteor 1-11 Rocket 3.9 04:04:40 10° NNW 04:10:31 89° WSW 04:16:27 10° S
NOSS 0 Rocket 4.4 04:04:25 10° NNW 04:10:41 69° NE 04:16:55 10° SE
COBE Rocket 4.1 04:06:58 10° N 04:11:29 46° WNW 04:16:04 10° SW
GP-B 3.3 04:07:48 10° SSW 04:12:05 49° W 04:16:24 10° N
CBERS-1 4.3 04:08:09 10° N 04:13:03 48° WNW 04:17:57 10° SW
Lacrosse 5 rocket 2.8 04:10:44 10° SSW 04:14:21 32° SE 04:17:49 10° ENE
NOSS 3-1 (A) 4.1 04:07:57 10° NW 04:15:09 66° SW 04:23:47 10° SSE
Cosmos 2084 Rocket 3.4 04:11:11 10° SW 04:15:17 75° SE 04:19:14 10° NE
Cosmos 2221 3.8 04:13:15 13° WSW 04:16:02 22° WNW 04:19:25 10° NNW
Helios 1A 3.3 04:13:10 10° S 04:17:03 41° W 04:20:57 10° NNW
Cosmos 2360 Rocket 3.1 04:13:56 10° NW 04:18:30 25° WSW 04:23:03 10° SSW
Cosmos 1867 3.6 04:14:37 10° NW 04:20:08 86° SW 04:25:36 10° SE
ATLAS 5 CENTAUR R/B 3.6 04:19:04 10° NW 04:21:54 17° N 04:25:02 10° NE
Cosmos 2333 Rocket 3.0 04:17:19 10° NW 04:22:14 30° WSW 04:27:08 10° SSW
Cosmos 2237 Rocket 3.1 04:19:39 10° NNW 04:25:16 54° NE 04:30:50 10° SE
Cosmos 2322 3.8 04:21:15 10° NW 04:26:51 58° WSW 04:32:24 10° S
COSMOS 2428 2.7 04:21:49 10° NNW 04:27:30 70° WSW 04:33:09 10° SSE
SL-16 R/B 4.3 04:23:32 10° NNW 04:28:19 26° NE 04:33:04 10° E
ARIANE 5 R/B 2.5 04:23:33 10° NNE 04:28:38 76° WNW 04:33:38 10° SSW
Cosmos 1743 Rocket 3.8 04:25:58 10° NNW 04:30:05 44° W 04:34:12 10° SSW
CZ-2C R/B 3.7 04:26:37 10° N 04:30:18 22° WNW 04:33:53 10° WSW
Cosmos 2082 Rocket 4.1 04:27:52 10° WNW 04:31:06 15° NNW 04:34:19 10° N
Meteor 1-10 Rocket 4.2 04:27:16 10° SSW 04:32:51 72° WNW 04:38:25 10° N
Cosmos 1805 Rocket 3.9 04:29:56 10° NNW 04:34:02 43° W 04:38:08 10° SSW
H-2A R/B 2.3 04:29:03 10° NNE 04:34:31 83° ESE 04:39:59 10° SSW
ERS-2 1.7 04:31:35 10° N 04:34:45 68° WNW 04:37:53 10° SSW
Cosmos 1271 Rocket 3.3 04:33:23 10° NNW 04:36:49 33° W 04:40:11 10° SSW
SJ-12 4.5 04:33:12 10° NNE 04:37:14 63° ESE 04:41:13 10° S
Cosmos 1151 Rocket 3.1 04:34:55 10° S 04:39:16 87° WNW 04:43:40 10° N
Cosmos 1726 3.3 04:36:17 10° N 04:39:35 44° ENE 04:42:52 10° SSE
IRS-P3 4.2 04:35:51 10° NNE 04:41:11 69° WNW 04:46:29 10° SSW
